Tracking 29594 objects as of 20-Sep-2024
HD Live streaming from Space Station
objects crossing your sky now

STARLINK-4614

Track STARLINK-4614 now!
10-day predictions
STARLINK-4614 is classified as:


NORAD ID: 53741
Int'l Code: 2022-107AT
Perigee: 545.9 km
Apogee: 547.8 km
Inclination: 53.2 °
Period: 95.4 minutes
Semi major axis: 6917 km
RCS: Unknown
Launch date: September 5, 2022
Source: United States (US)
Launch site: AIR FORCE EASTERN TEST RANGE (AFETR)
Your satellite tracking list
Your tracking list is empty




NASA's NSSDC Master Catalog

Two Line Element Set (TLE):
1 53741U 22107AT  24263.37988201 -.00000840  00000-0 -34669-4 0  9993
2 53741  53.2161 136.4824 0001377  85.0148 275.1001 15.08836982113845
Source of the keplerian elements: AFSPC